EW6810 Weather Reports


Display with metric or nautical units.
time (UTC)temp
F
wind
direction
speed
MPH
gust
MPH
rain 1hr
in
rain 24hr
in
rain mn
in
humidity
%
barometer
mb
20260509061055 52 132 0.0 0.0 0.00 0.00 0.00 78 1019.3
20260509060555 52 132 0.0 0.0 0.00 0.00 0.00 77 1019.3
20260509060122 52 132 0.0 0.0 0.00 0.00 0.00 77 1019.4
20260509055554 52 132 0.0 0.0 0.00 0.00 0.00 77 1019.3
20260509055053 52 132 0.0 1.0 0.00 0.00 0.00 77 1019.3
20260509054600 52 132 0.0 1.0 0.00 0.00 0.00 77 1019.2
20260509054053 53 132 0.0 1.0 0.00 0.00 0.00 77 1019.2
20260509053553 53 132 0.0 1.0 0.00 0.00 0.00 77 1019.2
20260509053053 53 132 0.0 2.0 0.00 0.00 0.00 77 1019.2
20260509052551 53 132 0.0 2.0 0.00 0.00 0.00 77 1019.2
20260509052051 53 132 0.0 2.0 0.00 0.00 0.00 77 1019.2
20260509051553 53 132 0.0 2.0 0.00 0.00 0.00 77 1019.2
20260509051050 53 132 0.0 1.0 0.00 0.00 0.00 77 1019.1
20260509050550 53 132 0.0 1.0 0.00 0.00 0.00 77 1019.2
20260509050105 53 132 0.0 1.0 0.00 0.00 0.00 76 1019.2
20260509045549 53 132 0.0 1.0 0.00 0.00 0.00 76 1019.2
20260509045049 53 132 0.0 1.0 0.00 0.00 0.00 76 1019.1
20260509044559 53 132 0.0 1.0 0.00 0.00 0.00 75 1019.1
20260509044050 53 132 0.0 1.0 0.00 0.00 0.00 75 1019.1
20260509043550 53 132 0.0 1.0 0.00 0.00 0.00 74 1019.0
20260509043048 53 132 0.0 1.0 0.00 0.00 0.00 74 1019.0
20260509042547 53 132 0.0 1.0 0.00 0.00 0.00 74 1018.9
20260509042049 53 132 0.0 1.0 0.00 0.00 0.00 73 1018.8
20260509041546 54 132 0.0 3.0 0.00 0.00 0.00 72 1018.8
20260509041046 54 132 0.0 3.0 0.00 0.00 0.00 72 1018.8
20260509040509 54 125 0.0 2.0 0.00 0.00 0.00 72 1018.8
20260509040009 54 124 0.0 0.0 0.00 0.00 0.00 73 1018.7
20260509035510 54 124 0.0 1.0 0.00 0.00 0.00 73 1018.6
20260509035009 54 124 0.0 1.0 0.00 0.00 0.00 73 1018.5
20260509034515 54 124 0.0 2.0 0.00 0.00 0.00 72 1018.5
20260509034014 54 125 0.0 2.0 0.00 0.00 0.00 71 1018.4
20260509033514 54 125 0.0 2.0 0.00 0.00 0.00 71 1018.4
20260509033014 54 119 0.0 2.0 0.00 0.00 0.00 71 1018.4
20260509032513 54 119 0.0 1.0 0.00 0.00 0.00 71 1018.4
20260509032012 55 119 0.0 1.0 0.00 0.00 0.00 70 1018.3
20260509031520 55 119 0.0 1.0 0.00 0.00 0.00 71 1018.3
20260509031011 55 119 0.0 2.0 0.00 0.00 0.00 70 1018.2
20260509030511 55 119 0.0 2.0 0.00 0.00 0.00 70 1018.2
20260509030014 55 118 0.0 2.0 0.00 0.00 0.00 69 1018.2
20260509025510 55 111 0.0 3.0 0.00 0.00 0.00 69 1018.2
20260509025009 55 259 0.0 3.0 0.00 0.00 0.00 69 1018.2
20260509024511 55 332 0.0 2.0 0.00 0.00 0.00 70 1018.1
20260509024009 55 342 0.0 3.0 0.00 0.00 0.00 69 1018.1
20260509023509 55 348 0.0 3.0 0.00 0.00 0.00 69 1018.0
20260509023012 55 186 1.0 3.0 0.00 0.00 0.00 68 1017.9
20260509022505 55 144 1.0 3.0 0.00 0.00 0.00 68 1017.9
20260509022004 55 55 0.0 4.0 0.00 0.00 0.00 67 1017.9
20260509021502 56 52 1.0 4.0 0.00 0.00 0.00 67 1017.8
20260509021101 56 30 0.0 4.0 0.00 0.00 0.00 66 1017.8
20260509020558 56 77 0.0 3.0 0.00 0.00 0.00 66 1017.8
20260509020059 56 177 1.0 3.0 0.00 0.00 0.00 65 1017.8
20260509015556 56 196 0.0 6.0 0.00 0.00 0.00 65 1017.8
20260509015056 56 166 1.0 6.0 0.00 0.00 0.00 64 1017.8
20260509014557 57 130 0.0 4.0 0.00 0.00 0.00 65 1017.8
20260509014056 57 154 1.0 3.0 0.00 0.00 0.00 64 1017.8
20260509013553 57 36 0.0 3.0 0.00 0.00 0.00 67 1017.8
20260509013059 57 106 1.0 3.0 0.00 0.00 0.00 65 1017.9
20260509012550 56 34 0.0 4.0 0.00 0.00 0.00 67 1017.8
20260509012049 56 209 1.0 5.0 0.00 0.00 0.00 65 1017.7
20260509011549 56 58 1.0 5.0 0.00 0.00 0.00 65 1017.7
20260509011047 57 64 0.0 5.0 0.00 0.00 0.00 65 1017.6
20260509010650 57 182 1.0 5.0 0.00 0.00 0.00 65 1017.6
20260509010048 57 170 1.0 4.0 0.00 0.00 0.00 64 1017.7
20260509005547 57 81 1.0 5.0 0.00 0.00 0.00 64 1017.7
20260509005046 57 122 2.0 7.0 0.00 0.00 0.00 64 1017.7
20260509004548 57 146 1.0 7.0 0.00 0.00 0.00 64 1017.6
20260509004046 57 359 1.0 6.0 0.00 0.00 0.00 65 1017.6
20260509003546 57 135 2.0 6.0 0.00 0.00 0.00 64 1017.6
20260509003057 57 214 0.0 3.0 0.00 0.00 0.00 66 1017.6
20260509002545 56 152 1.0 3.0 0.00 0.00 0.00 66 1017.7
20260509002146 57 23 0.0 7.0 0.00 0.00 0.00 66 1017.7
20260509001544 57 22 1.0 7.0 0.00 0.00 0.00 66 1017.7
20260509001045 57 125 0.0 4.0 0.00 0.00 0.00 66 1017.7
20260509000643 57 77 1.0 4.0 0.00 0.00 0.00 66 1017.7
20260509000049 57 61 0.0 4.0 0.00 0.00 0.00 67 1017.7
20260508235544 56 182 1.0 4.0 0.00 0.00 0.00 66 1017.8
20260508235043 56 351 1.0 7.0 0.00 0.00 0.00 66 1017.7
20260508234542 56 157 2.0 7.0 0.00 0.00 0.00 66 1017.5
20260508234042 57 207 0.0 3.0 0.00 0.00 0.00 68 1017.5
20260508233542 56 159 1.0 6.0 0.00 0.00 0.00 68 1017.5
20260508233042 56 161 1.0 6.0 0.00 0.00 0.00 67 1017.4
20260508232541 56 85 1.0 6.0 0.00 0.00 0.00 68 1017.4
20260508232041 56 115 0.0 6.0 0.00 0.00 0.00 69 1017.5
20260508231540 56 96 0.0 4.0 0.00 0.00 0.00 71 1017.5
20260508231044 56 169 0.0 4.0 0.00 0.00 0.00 73 1017.5
20260508230642 56 169 0.0 4.0 0.00 0.00 0.00 71 1017.5
20260508230042 56 96 0.0 3.0 0.00 0.00 0.00 70 1017.5
20260508225539 56 186 0.0 4.0 0.00 0.00 0.00 70 1017.5
20260508225039 56 186 0.0 6.0 0.00 0.00 0.00 69 1017.4
20260508224538 56 128 1.0 6.0 0.00 0.00 0.00 69 1017.3
20260508224038 56 146 2.0 5.0 0.00 0.00 0.00 69 1017.3
20260508223538 55 348 1.0 7.0 0.00 0.00 0.00 71 1017.3
20260508223040 55 155 3.0 7.0 0.00 0.00 0.00 70 1017.3
20260508222538 55 322 0.0 6.0 0.00 0.00 0.00 72 1017.4
20260508222037 55 308 3.0 6.0 0.00 0.00 0.00 72 1017.4
20260508221537 54 151 1.0 4.0 0.00 0.00 0.00 73 1017.4
20260508221037 54 156 1.0 4.0 0.00 0.00 0.00 73 1017.4
20260508220636 54 67 0.0 3.0 0.00 0.00 0.00 73 1017.3
20260508220049 54 150 0.0 4.0 0.00 0.00 0.00 73 1017.4
20260508215549 54 150 1.0 4.0 0.00 0.00 0.00 73 1017.4
20260508215049 54 182 1.0 3.0 0.00 0.00 0.00 74 1017.3
20260508214549 54 138 0.0 4.0 0.00 0.00 0.00 73 1017.2
20260508214052 54 63 1.0 5.0 0.00 0.00 0.00 73 1017.2
20260508213549 54 116 1.0 4.0 0.00 0.00 0.00 73 1017.4
20260508213048 54 17 1.0 7.0 0.00 0.00 0.00 73 1017.3
20260508212548 54 101 1.0 7.0 0.00 0.00 0.00 74 1017.3
20260508212048 54 280 0.0 4.0 0.00 0.00 0.00 73 1017.3
20260508211547 54 137 1.0 4.0 0.00 0.00 0.00 73 1017.3
20260508211050 54 37 2.0 4.0 0.00 0.00 0.00 73 1017.2
20260508210519 54 188 1.0 4.0 0.00 0.00 0.00 73 1017.0
20260508210018 54 138 1.0 3.0 0.00 0.00 0.00 73 1017.0
20260508205518 54 17 0.0 3.0 0.00 0.00 0.00 74 1017.0
20260508205017 54 16 1.0 5.0 0.00 0.00 0.00 73 1016.9
20260508204517 54 153 1.0 5.0 0.00 0.00 0.00 73 1016.9
20260508204016 54 327 0.0 5.0 0.00 0.00 0.00 72 1016.9
20260508203515 54 157 1.0 5.0 0.00 0.00 0.00 72 1016.8
20260508203017 55 111 0.0 4.0 0.00 0.00 0.00 72 1016.7
20260508202515 54 247 0.0 4.0 0.00 0.00 0.00 72 1016.7
20260508202014 55 25 1.0 4.0 0.00 0.00 0.00 72 1016.6
20260508201519 55 160 1.0 4.0 0.00 0.00 0.00 72 1016.6
20260508201013 54 101 0.0 9.0 0.00 0.00 0.00 74 1016.5
20260508200513 53 141 0.0 9.0 0.00 0.00 0.00 74 1016.6
20260508200019 53 71 3.0 9.0 0.00 0.00 0.00 73 1016.5
20260508195510 53 160 2.0 6.0 0.00 0.00 0.00 75 1016.4
20260508195011 53 21 1.0 11.0 0.00 0.00 0.00 76 1016.5
20260508194511 53 14 0.0 11.0 0.00 0.00 0.00 76 1016.4
20260508194009 53 146 1.0 5.0 0.00 0.00 0.00 76 1016.4
20260508193509 53 4 2.0 5.0 0.00 0.00 0.00 76 1016.3
20260508193015 53 121 0.0 7.0 0.00 0.00 0.00 77 1016.2
20260508192512 53 48 2.0 9.0 0.00 0.00 0.00 77 1016.2
20260508192012 53 177 1.0 9.0 0.00 0.00 0.00 76 1016.1
20260508191510 54 136 2.0 6.0 0.00 0.00 0.00 76 1016.0
20260508191007 54 43 1.0 9.0 0.00 0.00 0.00 77 1016.0
20260508190505 54 149 2.0 9.0 0.00 0.00 0.00 77 1015.8
20260508190007 54 43 1.0 4.0 0.00 0.00 0.00 79 1015.8
20260508185503 54 111 0.0 9.0 0.00 0.00 0.00 79 1015.6
20260508185003 54 205 2.0 9.0 0.00 0.00 0.00 79 1015.6
20260508184506 54 157 1.0 5.0 0.00 0.00 0.00 78 1015.4
20260508184003 54 240 1.0 7.0 0.00 0.00 0.00 78 1015.3
20260508183503 54 117 1.0 9.0 0.00 0.00 0.00 78 1015.5
20260508183002 55 213 2.0 9.0 0.00 0.00 0.00 77 1015.5
20260508182502 55 163 1.0 7.0 0.00 0.00 0.00 77 1015.5
20260508182102 55 123 1.0 7.0 0.00 0.00 0.00 77 1015.4
20260508181635 55 284 2.0 7.0 0.00 0.00 0.00 77 1015.4
20260508181101 55 96 1.0 10.0 0.00 0.00 0.00 78 1015.2
20260508180601 55 197 2.0 10.0 0.00 0.00 0.00 77 1015.1
20260508180105 55 187 2.0 11.0 0.00 0.00 0.00 77 1015.0
20260508175557 55 136 3.0 11.0 0.00 0.00 0.00 75 1015.0
20260508175057 56 146 1.0 7.0 0.00 0.00 0.00 76 1014.9
20260508174603 56 129 2.0 6.0 0.00 0.00 0.00 75 1015.0
20260508174056 56 138 2.0 5.0 0.00 0.00 0.00 76 1014.8
20260508173556 56 26 3.0 6.0 0.00 0.00 0.00 76 1014.9
20260508173056 56 138 1.0 4.0 0.00 0.00 0.00 76 1014.8
20260508172555 56 16 0.0 6.0 0.00 0.00 0.00 77 1014.8
20260508172055 56 129 1.0 6.0 0.00 0.00 0.00 76 1014.7
20260508171555 56 46 1.0 4.0 0.00 0.00 0.00 76 1014.6
20260508171053 56 95 1.0 10.0 0.00 0.00 0.00 76 1014.6
20260508170553 56 190 2.0 10.0 0.00 0.00 0.00 75 1014.6
20260508170053 56 189 3.0 10.0 0.00 0.00 0.00 75 1014.4
20260508165552 56 122 1.0 8.0 0.00 0.00 0.00 76 1014.4
20260508165051 56 167 2.0 8.0 0.00 0.00 0.00 77 1014.3
20260508164551 56 164 2.0 4.0 0.00 0.00 0.00 79 1014.4
20260508164050 56 321 1.0 4.0 0.00 0.00 0.00 78 1014.3
20260508163547 56 116 0.0 6.0 0.00 0.00 0.00 79 1014.4
20260508163048 55 214 1.0 6.0 0.00 0.00 0.00 79 1014.5
20260508162547 55 101 2.0 8.0 0.00 0.00 0.00 79 1014.2
20260508162047 55 195 2.0 8.0 0.00 0.00 0.00 79 1014.2
20260508161556 55 192 2.0 7.0 0.00 0.00 0.00 79 1014.2
20260508161046 56 208 1.0 4.0 0.00 0.00 0.00 78 1014.0
20260508160546 56 118 0.0 3.0 0.00 0.00 0.00 79 1014.0
20260508160045 56 177 1.0 5.0 0.00 0.00 0.00 79 1013.9
20260508155544 55 142 0.0 5.0 0.00 0.00 0.00 79 1013.8
20260508155043 55 76 1.0 3.0 0.00 0.00 0.00 80 1013.9
20260508154542 55 101 0.0 5.0 0.00 0.00 0.00 80 1013.9
20260508154041 55 280 0.0 5.0 0.00 0.00 0.00 80 1014.1
20260508153541 55 192 2.0 5.0 0.00 0.00 0.00 80 1014.1
20260508153045 55 163 1.0 4.0 0.00 0.00 0.00 81 1014.1
20260508152541 55 219 1.0 4.0 0.00 0.00 0.00 82 1014.0
20260508152038 54 115 0.0 3.0 0.00 0.00 0.00 82 1013.9
20260508151537 54 79 1.0 3.0 0.00 0.00 0.00 83 1013.9
20260508151036 54 190 0.0 3.0 0.00 0.00 0.00 84 1013.9
20260508150635 54 339 0.0 0.0 0.00 0.00 0.00 84 1013.9
20260508150019 54 339 0.0 0.0 0.00 0.00 0.00 84 1013.9
20260508145519 54 339 0.0 0.0 0.00 0.00 0.00 84 1013.9
20260508145018 54 339 0.0 0.0 0.00 0.00 0.00 83 1013.9
20260508144518 54 339 0.0 1.0 0.00 0.00 0.00 83 1013.8
20260508144017 54 339 0.0 1.0 0.00 0.00 0.00 83 1013.7
20260508143517 54 338 0.0 1.0 0.00 0.00 0.00 83 1013.5
20260508143021 54 338 0.0 1.0 0.00 0.00 0.00 83 1013.5
20260508142514 54 338 0.0 1.0 0.00 0.00 0.00 83 1013.4
20260508142114 54 338 0.0 1.0 0.00 0.00 0.00 83 1013.4
20260508141514 54 338 0.0 1.0 0.00 0.00 0.00 83 1013.4
20260508141012 54 338 0.0 1.0 0.00 0.00 0.00 83 1013.5
20260508140512 54 338 0.0 1.0 0.00 0.00 0.00 83 1013.4
20260508140011 53 338 0.0 2.0 0.00 0.00 0.00 83 1013.4
20260508135511 53 338 0.0 2.0 0.00 0.00 0.00 83 1013.2
20260508135010 53 340 0.0 0.0 0.00 0.00 0.00 83 1013.2
20260508134509 53 340 0.0 1.0 0.00 0.00 0.00 83 1013.2
20260508134009 53 340 0.0 1.0 0.00 0.00 0.00 83 1013.2
20260508133516 53 340 0.0 0.0 0.00 0.00 0.00 83 1013.2
20260508133010 53 340 0.0 2.0 0.00 0.00 0.00 83 1013.1
20260508132506 53 340 0.0 2.0 0.00 0.00 0.00 83 1013.1
20260508132007 53 340 0.0 0.0 0.00 0.00 0.00 83 1013.1
20260508131505 53 340 0.0 0.0 0.00 0.00 0.00 83 1013.2
20260508131005 53 340 0.0 2.0 0.00 0.00 0.00 83 1013.1
20260508130504 53 340 0.0 2.0 0.00 0.00 0.00 83 1013.1
20260508130004 53 340 0.0 1.0 0.00 0.00 0.00 83 1013.0
20260508125504 53 340 0.0 0.0 0.00 0.00 0.00 83 1013.0
20260508125005 53 340 0.0 0.0 0.00 0.00 0.00 83 1013.0
20260508124506 53 340 0.0 0.0 0.00 0.00 0.00 83 1012.9
20260508124004 53 340 0.0 1.0 0.00 0.00 0.00 82 1012.8
20260508123504 53 340 0.0 1.0 0.00 0.00 0.00 83 1012.9
20260508123004 53 340 0.0 1.0 0.00 0.00 0.00 82 1012.9
20260508122506 53 340 0.0 1.0 0.00 0.00 0.00 82 1012.9
20260508122004 53 340 0.0 1.0 0.00 0.00 0.00 82 1012.9
20260508121504 53 340 0.0 1.0 0.00 0.00 0.00 82 1012.9
20260508121003 53 340 0.0 1.0 0.00 0.00 0.00 82 1012.9
20260508120503 53 340 0.0 2.0 0.00 0.00 0.00 82 1012.9
20260508120003 53 340 0.0 2.0 0.00 0.00 0.00 82 1012.9
20260508115502 53 340 0.0 1.0 0.00 0.00 0.00 82 1013.0
20260508115001 53 340 0.0 1.0 0.00 0.00 0.00 82 1012.9
20260508114501 53 340 0.0 1.0 0.00 0.00 0.00 82 1012.8
20260508114002 53 340 0.0 2.0 0.00 0.00 0.00 82 1012.9
20260508113501 53 340 0.0 2.0 0.00 0.00 0.00 82 1012.8
20260508113102 54 340 1.0 2.0 0.00 0.00 0.00 82 1012.7
20260508112600 54 339 0.0 2.0 0.00 0.00 0.00 82 1012.8
20260508112101 54 339 0.0 2.0 0.00 0.00 0.00 82 1012.7
20260508111611 54 339 0.0 2.0 0.00 0.00 0.00 82 1012.6
20260508111503 54 339 0.0 2.0 0.00 0.00 0.00 82 1012.6
20260508111100 54 339 0.0 2.0 0.00 0.00 0.00 82 1012.6
20260508110558 54 339 0.0 2.0 0.00 0.00 0.00 82 1012.8
20260508105558 53 340 0.0 1.0 0.00 0.00 0.00 82 1012.8
20260508105058 53 338 0.0 2.0 0.00 0.00 0.00 82 1012.8
20260508104558 53 338 0.0 3.0 0.00 0.00 0.00 82 1012.7
20260508104058 53 339 0.0 3.0 0.00 0.00 0.00 83 1012.7
20260508103558 53 317 1.0 3.0 0.00 0.00 0.00 83 1012.7
20260508103058 54 244 0.0 2.0 0.00 0.00 0.00 83 1012.8
20260508102557 54 244 0.0 2.0 0.00 0.00 0.00 83 1012.7
20260508102057 54 244 0.0 2.0 0.00 0.00 0.00 83 1012.7
20260508101557 54 244 0.0 2.0 0.00 0.00 0.00 83 1012.8
20260508101057 54 244 0.0 1.0 0.00 0.00 0.00 83 1012.8
20260508100556 54 244 0.0 2.0 0.00 0.00 0.00 83 1012.7
20260508100056 54 244 0.0 2.0 0.00 0.00 0.00 83 1012.7
20260508095556 54 244 0.0 0.0 0.00 0.00 0.00 83 1012.7
20260508095059 54 244 0.0 0.0 0.00 0.00 0.00 83 1012.6
20260508094606 54 244 0.0 1.0 0.00 0.00 0.00 83 1012.6
20260508094057 54 244 0.0 2.0 0.00 0.00 0.00 83 1012.5
20260508093555 54 244 0.0 2.0 0.00 0.00 0.00 83 1012.6
20260508093057 54 244 0.0 1.0 0.00 0.00 0.00 83 1012.6
20260508092555 54 244 0.0 1.0 0.00 0.00 0.00 83 1012.6
20260508092054 54 244 0.0 0.0 0.00 0.00 0.00 83 1012.5
20260508091656 54 244 0.0 0.0 0.00 0.00 0.00 83 1012.4
20260508091053 54 244 0.0 0.0 0.00 0.00 0.00 83 1012.5
20260508090552 54 244 0.0 0.0 0.00 0.00 0.00 83 1012.4
20260508090054 54 244 0.0 1.0 0.00 0.00 0.00 83 1012.5
20260508085552 54 244 0.0 1.0 0.00 0.00 0.00 83 1012.6
20260508085054 54 244 0.0 1.0 0.00 0.00 0.00 83 1012.6
20260508084551 54 244 0.0 1.0 0.00 0.00 0.00 82 1012.6
20260508084052 54 244 0.0 1.0 0.00 0.00 0.00 82 1012.7
20260508083551 54 244 0.0 1.0 0.00 0.00 0.00 83 1012.6
20260508083056 54 244 0.0 1.0 0.00 0.00 0.00 83 1012.6
20260508082551 54 244 0.0 1.0 0.00 0.00 0.00 83 1012.7
20260508082051 54 244 0.0 1.0 0.00 0.00 0.00 83 1012.7
20260508081605 54 244 0.0 1.0 0.00 0.00 0.00 82 1012.7
20260508081049 54 244 0.0 1.0 0.00 0.00 0.00 82 1012.7
20260508080552 54 244 0.0 2.0 0.00 0.00 0.00 82 1012.7
20260508080054 54 244 0.0 2.0 0.00 0.00 0.00 82 1012.8
20260508075547 54 244 0.0 2.0 0.00 0.00 0.00 82 1012.9
20260508075047 54 244 0.0 2.0 0.00 0.00 0.00 82 1012.9
20260508074547 54 244 1.0 2.0 0.00 0.00 0.00 82 1012.9
20260508074046 54 244 0.0 2.0 0.00 0.00 0.00 81 1013.0
20260508073546 54 244 0.0 2.0 0.00 0.00 0.00 81 1013.0
20260508073044 54 244 0.0 2.0 0.00 0.00 0.00 80 1013.1
20260508072543 54 222 0.0 1.0 0.00 0.00 0.00 80 1013.1
20260508072042 54 221 0.0 0.0 0.00 0.00 0.00 79 1013.1
20260508071541 54 221 0.0 0.0 0.00 0.00 0.00 79 1013.0
20260508071039 55 221 0.0 0.0 0.00 0.00 0.00 79 1013.1
20260508070538 55 218 0.0 0.0 0.00 0.00 0.00 78 1013.2
20260508070037 55 218 0.0 1.0 0.00 0.00 0.00 78 1013.2
20260508065536 55 218 0.0 1.0 0.00 0.00 0.00 78 1013.2
20260508065036 55 218 0.0 0.0 0.00 0.00 0.00 77 1013.2
20260508064536 55 218 0.0 0.0 0.00 0.00 0.00 77 1013.2
20260508064036 55 218 0.0 2.0 0.00 0.00 0.00 77 1013.3
20260508063536 55 218 0.0 2.0 0.00 0.00 0.00 77 1013.3
20260508063037 55 214 0.0 1.0 0.00 0.00 0.00 77 1013.3
20260508062536 56 214 0.0 1.0 0.00 0.00 0.00 77 1013.3
20260508062036 56 214 0.0 1.0 0.00 0.00 0.00 77 1013.2